Time,TemperatureF,DewpointF,PressureIn,WindDirection,WindDirectionDegrees,WindSpeedMPH,WindSpeedGustMPH,Humidity,HourlyPrecipIn,Conditions,Clouds,dailyrainin,SoftwareType,DateUTC
2013-02-19 00:02:00,33.0,20.0,-100.00,SE,135,3.0,7.0,58,-99.99,,,-99.99,,2013-02-19 05:02:00,
2013-02-19 00:12:00,33.0,19.0,-100.00,SE,135,4.0,7.0,56,-99.99,,,-99.99,,2013-02-19 05:12:00,
2013-02-19 00:22:00,34.0,19.0,-100.00,SE,135,4.0,8.0,55,-99.99,,,-99.99,,2013-02-19 05:22:00,
2013-02-19 00:32:00,34.0,19.0,-100.00,SE,135,4.0,8.0,55,-99.99,,,-99.99,,2013-02-19 05:32:00,
2013-02-19 00:43:00,34.0,18.0,-100.00,SE,125,4.0,9.0,53,-99.99,,,-99.99,,2013-02-19 05:43:00,
2013-02-19 00:52:00,34.0,18.0,-100.00,SE,125,4.0,9.0,53,-99.99,,,-99.99,,2013-02-19 05:52:00,
2013-02-19 01:03:00,34.0,18.0,-100.00,SE,125,4.0,9.0,53,-99.99,,,-99.99,,2013-02-19 06:03:00,
2013-02-19 01:12:00,34.0,18.0,-100.00,ESE,120,4.0,8.0,52,-99.99,,,-99.99,,2013-02-19 06:12:00,
2013-02-19 01:22:00,34.0,18.0,-100.00,ESE,120,4.0,8.0,52,-99.99,,,-99.99,,2013-02-19 06:22:00,
2013-02-19 01:32:00,34.0,18.0,-100.00,ESE,120,4.0,7.0,52,-99.99,,,-99.99,,2013-02-19 06:32:00,
2013-02-19 01:42:00,34.0,18.0,-100.00,SE,140,4.0,7.0,52,-99.99,,,-99.99,,2013-02-19 06:42:00,
2013-02-19 01:52:00,34.0,18.0,-100.00,ESE,105,4.0,7.0,52,-99.99,,,-99.99,,2013-02-19 06:52:00,
2013-02-19 02:02:00,34.0,18.0,-100.00,ESE,105,4.0,7.0,52,-99.99,,,-99.99,,2013-02-19 07:02:00,
2013-02-19 02:11:00,34.0,18.0,-100.00,SE,135,4.0,7.0,52,-99.99,,,-99.99,,2013-02-19 07:11:00,
2013-02-19 02:22:00,34.0,18.0,-100.00,SE,135,4.0,7.0,52,-99.99,,,-99.99,,2013-02-19 07:22:00,
2013-02-19 02:32:00,33.0,18.0,-100.00,SE,130,4.0,7.0,52,-99.99,,,-99.99,,2013-02-19 07:32:00,
2013-02-19 02:42:00,33.0,18.0,-100.00,SE,125,4.0,7.0,53,-99.99,,,-99.99,,2013-02-19 07:42:00,
2013-02-19 02:52:00,33.0,18.0,-100.00,SE,135,5.0,8.0,53,-99.99,,,-99.99,,2013-02-19 07:52:00,
2013-02-19 03:02:00,33.0,18.0,-100.00,SE,135,5.0,8.0,53,-99.99,,,-99.99,,2013-02-19 08:02:00,
2013-02-19 03:11:00,33.0,18.0,-100.00,SE,130,5.0,8.0,53,-99.99,,,-99.99,,2013-02-19 08:11:00,
2013-02-19 03:21:00,33.0,18.0,-100.00,SE,130,5.0,8.0,53,-99.99,,,-99.99,,2013-02-19 08:21:00,
2013-02-19 03:32:00,34.0,18.0,-100.00,SE,135,4.0,8.0,53,-99.99,,,-99.99,,2013-02-19 08:32:00,
2013-02-19 03:42:00,34.0,18.0,-100.00,SE,125,5.0,10.0,52,-99.99,,,-99.99,,2013-02-19 08:42:00,
2013-02-19 03:52:00,35.0,19.0,-100.00,SE,130,5.0,10.0,52,-99.99,,,-99.99,,2013-02-19 08:52:00,
2013-02-19 04:02:00,35.0,19.0,-100.00,SE,130,5.0,10.0,52,-99.99,,,-99.99,,2013-02-19 09:02:00,
2013-02-19 04:11:00,35.0,19.0,-100.00,SE,125,3.0,9.0,52,-99.99,,,-99.99,,2013-02-19 09:11:00,
2013-02-19 04:22:00,35.0,19.0,-100.00,SE,135,6.0,14.0,52,-99.99,,,-99.99,,2013-02-19 09:22:00,
2013-02-19 04:32:00,35.0,19.0,-100.00,SE,135,6.0,14.0,52,-99.99,,,-99.99,,2013-02-19 09:32:00,
2013-02-19 04:42:00,35.0,19.0,-100.00,SE,130,6.0,12.0,52,-99.99,,,-99.99,,2013-02-19 09:42:00,
2013-02-19 04:52:00,35.0,19.0,-100.00,SE,130,6.0,12.0,52,-99.99,,,-99.99,,2013-02-19 09:52:00,
2013-02-19 05:02:00,36.0,19.0,-100.00,SE,130,5.0,9.0,51,-99.99,,,-99.99,,2013-02-19 10:02:00,
2013-02-19 05:11:00,35.0,20.0,-100.00,SE,130,5.0,9.0,52,-99.99,,,-99.99,,2013-02-19 10:11:00,
2013-02-19 05:22:00,35.0,20.0,-100.00,SE,130,4.0,9.0,52,-99.99,,,-99.99,,2013-02-19 10:22:00,
2013-02-19 05:32:00,35.0,20.0,-100.00,SE,130,4.0,9.0,52,-99.99,,,-99.99,,2013-02-19 10:32:00,
2013-02-19 05:42:00,36.0,20.0,-100.00,ESE,120,6.0,11.0,51,-99.99,,,-99.99,,2013-02-19 10:42:00,
2013-02-19 05:51:00,37.0,20.0,-100.00,ESE,120,7.0,13.0,51,-99.99,,,-99.99,,2013-02-19 10:51:00,
2013-02-19 06:01:00,37.0,20.0,-100.00,ESE,120,7.0,13.0,51,-99.99,,,-99.99,,2013-02-19 11:01:00,
2013-02-19 06:11:00,38.0,21.0,-100.00,SE,140,7.0,12.0,51,-99.99,,,-99.99,,2013-02-19 11:11:00,
2013-02-19 06:22:00,38.0,21.0,-100.00,SE,140,7.0,12.0,51,-99.99,,,-99.99,,2013-02-19 11:22:00,
2013-02-19 06:32:00,38.0,21.0,-100.00,SE,130,7.0,16.0,50,-99.99,,,-99.99,,2013-02-19 11:32:00,
2013-02-19 06:42:00,39.0,21.0,-100.00,SE,135,9.0,18.0,49,-99.99,,,-99.99,,2013-02-19 11:42:00,
2013-02-19 06:52:00,39.0,21.0,-100.00,SE,135,9.0,18.0,49,-99.99,,,-99.99,,2013-02-19 11:52:00,
2013-02-19 07:02:00,38.0,22.0,-100.00,SE,135,9.0,16.0,50,-99.99,,,-99.99,,2013-02-19 12:02:00,
2013-02-19 07:12:00,39.0,22.0,-100.00,SE,140,10.0,15.0,50,-99.99,,,-99.99,,2013-02-19 12:12:00,
2013-02-19 07:22:00,39.0,22.0,-100.00,SE,135,6.0,14.0,50,-99.99,,,-99.99,,2013-02-19 12:22:00,
2013-02-19 07:32:00,39.0,22.0,-100.00,SE,135,6.0,14.0,50,-99.99,,,-99.99,,2013-02-19 12:32:00,
2013-02-19 07:42:00,38.0,21.0,-100.00,SE,125,5.0,11.0,50,-99.99,,,-99.99,,2013-02-19 12:42:00,
2013-02-19 07:52:00,38.0,21.0,-100.00,SE,125,5.0,11.0,50,-99.99,,,-99.99,,2013-02-19 12:52:00,
2013-02-19 08:02:00,39.0,22.0,-100.00,SE,125,6.0,11.0,51,-99.99,,,-99.99,,2013-02-19 13:02:00,
2013-02-19 08:11:00,39.0,22.0,-100.00,SE,130,7.0,13.0,50,-99.99,,,-99.99,,2013-02-19 13:11:00,
2013-02-19 08:22:00,39.0,22.0,-100.00,SE,130,7.0,13.0,50,-99.99,,,-99.99,,2013-02-19 13:22:00,
2013-02-19 08:32:00,40.0,22.0,-100.00,SE,125,7.0,15.0,50,-99.99,,,-99.99,,2013-02-19 13:32:00,
2013-02-19 08:42:00,41.0,23.0,-100.00,SE,135,9.0,19.0,49,-99.99,,,-99.99,,2013-02-19 13:42:00,
2013-02-19 08:52:00,42.0,23.0,-100.00,SE,135,7.0,18.0,47,-99.99,,,-99.99,,2013-02-19 13:52:00,
2013-02-19 09:02:00,42.0,23.0,-100.00,SE,135,7.0,18.0,47,-99.99,,,-99.99,,2013-02-19 14:02:00,
2013-02-19 09:11:00,42.0,23.0,-100.00,SSE,150,9.0,22.0,47,-99.99,,,-99.99,,2013-02-19 14:11:00,
2013-02-19 09:22:00,42.0,23.0,-100.00,SSE,150,9.0,22.0,47,-99.99,,,-99.99,,2013-02-19 14:22:00,
2013-02-19 09:33:00,42.0,23.0,-100.00,SE,140,9.0,22.0,46,-99.99,,,-99.99,,2013-02-19 14:33:00,
2013-02-19 09:42:00,43.0,23.0,-100.00,SE,140,9.0,21.0,46,-99.99,,,-99.99,,2013-02-19 14:42:00,
2013-02-19 09:52:00,43.0,23.0,-100.00,SE,140,9.0,21.0,46,-99.99,,,-99.99,,2013-02-19 14:52:00,
2013-02-19 10:02:00,43.0,24.0,-100.00,SE,145,12.0,20.0,46,-99.99,,,-99.99,,2013-02-19 15:02:00,
2013-02-19 10:11:00,43.0,24.0,-100.00,SE,140,11.0,21.0,46,-99.99,,,-99.99,,2013-02-19 15:11:00,
2013-02-19 10:21:00,41.0,28.0,-100.00,SE,140,9.0,22.0,60,-99.99,,,-99.99,,2013-02-19 15:21:00,
2013-02-19 10:32:00,41.0,28.0,-100.00,SE,140,9.0,22.0,60,-99.99,,,-99.99,,2013-02-19 15:32:00,
2013-02-19 10:42:00,41.0,29.0,-100.00,SE,140,10.0,21.0,63,-99.99,,,-99.99,,2013-02-19 15:42:00,
2013-02-19 10:52:00,41.0,29.0,-100.00,SE,140,10.0,21.0,63,-99.99,,,-99.99,,2013-02-19 15:52:00,
2013-02-19 11:02:00,41.0,31.0,-100.00,SSE,155,8.0,18.0,68,-99.99,,,-99.99,,2013-02-19 16:02:00,
2013-02-19 11:11:00,41.0,32.0,-100.00,SSE,150,7.0,13.0,71,-99.99,,,-99.99,,2013-02-19 16:11:00,
2013-02-19 11:22:00,41.0,32.0,-100.00,SSE,150,7.0,13.0,71,-99.99,,,-99.99,,2013-02-19 16:22:00,
2013-02-19 11:32:00,40.0,34.0,-100.00,SE,140,9.0,15.0,78,-99.99,,,-99.99,,2013-02-19 16:32:00,
2013-02-19 11:42:00,40.0,36.0,-100.00,SSE,150,9.0,18.0,84,-99.99,,,-99.99,,2013-02-19 16:42:00,
2013-02-19 11:52:00,40.0,36.0,-100.00,SSE,150,9.0,18.0,84,-99.99,,,-99.99,,2013-02-19 16:52:00,
2013-02-19 12:01:00,40.0,36.0,-100.00,SE,145,7.0,17.0,86,-99.99,,,-99.99,,2013-02-19 17:01:00,
2013-02-19 12:11:00,40.0,37.0,-100.00,SE,140,8.0,21.0,87,-99.99,,,-99.99,,2013-02-19 17:11:00,
2013-02-19 12:21:00,40.0,37.0,-100.00,SE,140,8.0,21.0,87,-99.99,,,-99.99,,2013-02-19 17:21:00,
2013-02-19 12:32:00,40.0,37.0,-100.00,SE,140,8.0,17.0,89,-99.99,,,-99.99,,2013-02-19 17:32:00,
2013-02-19 12:42:00,41.0,38.0,-100.00,SE,135,7.0,17.0,91,-99.99,,,-99.99,,2013-02-19 17:42:00,
2013-02-19 12:52:00,41.0,38.0,-100.00,SE,135,7.0,17.0,91,-99.99,,,-99.99,,2013-02-19 17:52:00,
2013-02-19 13:02:00,41.0,39.0,-100.00,SE,130,6.0,14.0,92,-99.99,,,-99.99,,2013-02-19 18:02:00,
2013-02-19 13:11:00,41.0,39.0,-100.00,ESE,110,9.0,20.0,94,-99.99,,,-99.99,,2013-02-19 18:11:00,
2013-02-19 13:21:00,41.0,39.0,-100.00,ESE,110,9.0,20.0,94,-99.99,,,-99.99,,2013-02-19 18:21:00,
2013-02-19 13:32:00,41.0,40.0,-100.00,SE,135,10.0,18.0,94,-99.99,,,-99.99,,2013-02-19 18:32:00,
2013-02-19 13:42:00,42.0,40.0,-100.00,SE,145,6.0,14.0,94,-99.99,,,-99.99,,2013-02-19 18:42:00,
2013-02-19 13:52:00,42.0,40.0,-100.00,SE,145,6.0,14.0,94,-99.99,,,-99.99,,2013-02-19 18:52:00,
2013-02-19 14:01:00,42.0,40.0,-100.00,SE,135,10.0,16.0,93,-99.99,,,-99.99,,2013-02-19 19:01:00,
2013-02-19 14:11:00,42.0,40.0,-100.00,SE,135,7.0,15.0,94,-99.99,,,-99.99,,2013-02-19 19:11:00,
2013-02-19 14:21:00,42.0,40.0,-100.00,SE,135,7.0,15.0,94,-99.99,,,-99.99,,2013-02-19 19:21:00,
2013-02-19 14:32:00,43.0,41.0,-100.00,SE,145,7.0,19.0,94,-99.99,,,-99.99,,2013-02-19 19:32:00,
2013-02-19 14:42:00,43.0,41.0,-100.00,SE,145,9.0,16.0,94,-99.99,,,-99.99,,2013-02-19 19:42:00,
2013-02-19 14:51:00,43.0,41.0,-100.00,SE,145,9.0,16.0,94,-99.99,,,-99.99,,2013-02-19 19:51:00,
2013-02-19 15:02:00,43.0,42.0,-100.00,SE,145,10.0,20.0,94,-99.99,,,-99.99,,2013-02-19 20:02:00,
2013-02-19 15:12:00,44.0,42.0,-100.00,SE,130,8.0,17.0,93,-99.99,,,-99.99,,2013-02-19 20:12:00,
2013-02-19 15:21:00,44.0,42.0,-100.00,SE,130,8.0,17.0,93,-99.99,,,-99.99,,2013-02-19 20:21:00,
2013-02-19 15:32:00,44.0,42.0,-100.00,SSE,160,8.0,17.0,92,-99.99,,,-99.99,,2013-02-19 20:32:00,
2013-02-19 15:42:00,44.0,42.0,-100.00,SSE,160,7.0,17.0,92,-99.99,,,-99.99,,2013-02-19 20:42:00,
2013-02-19 15:52:00,44.0,42.0,-100.00,SSE,160,7.0,17.0,92,-99.99,,,-99.99,,2013-02-19 20:52:00,
2013-02-19 16:02:00,44.0,42.0,-100.00,SE,130,10.0,21.0,91,-99.99,,,-99.99,,2013-02-19 21:02:00,
2013-02-19 16:11:00,44.0,42.0,-100.00,SE,140,11.0,22.0,91,-99.99,,,-99.99,,2013-02-19 21:11:00,
2013-02-19 16:21:00,44.0,42.0,-100.00,SE,140,11.0,22.0,91,-99.99,,,-99.99,,2013-02-19 21:21:00,
2013-02-19 16:32:00,44.0,42.0,-100.00,SE,135,9.0,16.0,91,-99.99,,,-99.99,,2013-02-19 21:32:00,
2013-02-19 16:42:00,44.0,42.0,-100.00,SSE,155,9.0,21.0,91,-99.99,,,-99.99,,2013-02-19 21:42:00,
2013-02-19 16:51:00,44.0,42.0,-100.00,SSE,155,9.0,21.0,91,-99.99,,,-99.99,,2013-02-19 21:51:00,
2013-02-19 17:02:00,45.0,42.0,-100.00,SE,135,11.0,19.0,91,-99.99,,,-99.99,,2013-02-19 22:02:00,
2013-02-19 17:11:00,45.0,42.0,-100.00,SSE,165,10.0,19.0,90,-99.99,,,-99.99,,2013-02-19 22:11:00,
2013-02-19 17:21:00,45.0,42.0,-100.00,SSE,165,10.0,19.0,90,-99.99,,,-99.99,,2013-02-19 22:21:00,
2013-02-19 17:32:00,45.0,42.0,-100.00,SSE,165,10.0,19.0,90,-99.99,,,-99.99,,2013-02-19 22:32:00,
2013-02-19 17:42:00,45.0,42.0,-100.00,SE,145,9.0,19.0,88,-99.99,,,-99.99,,2013-02-19 22:42:00,
2013-02-19 17:52:00,45.0,42.0,-100.00,SE,145,9.0,19.0,88,-99.99,,,-99.99,,2013-02-19 22:52:00,
2013-02-19 18:01:00,45.0,42.0,-100.00,SSE,160,12.0,21.0,88,-99.99,,,-99.99,,2013-02-19 23:01:00,
2013-02-19 18:11:00,45.0,41.0,-100.00,South,170,11.0,20.0,86,-99.99,,,-99.99,,2013-02-19 23:11:00,
2013-02-19 18:21:00,45.0,41.0,-100.00,South,170,11.0,20.0,86,-99.99,,,-99.99,,2013-02-19 23:21:00,
2013-02-19 18:32:00,45.0,41.0,-100.00,SSW,200,5.0,15.0,86,-99.99,,,-99.99,,2013-02-19 23:32:00,
2013-02-19 18:42:00,45.0,41.0,-100.00,South,170,9.0,16.0,87,-99.99,,,-99.99,,2013-02-19 23:42:00,
2013-02-19 18:52:00,45.0,41.0,-100.00,South,170,9.0,16.0,87,-99.99,,,-99.99,,2013-02-19 23:52:00,
2013-02-19 19:01:00,44.0,41.0,-100.00,South,170,6.0,12.0,88,-99.99,,,-99.99,,2013-02-20 00:01:00,
2013-02-19 19:11:00,44.0,41.0,-100.00,South,175,4.0,9.0,88,-99.99,,,-99.99,,2013-02-20 00:11:00,
2013-02-19 19:21:00,44.0,40.0,-100.00,South,190,3.0,7.0,89,-99.99,,,-99.99,,2013-02-20 00:21:00,
2013-02-19 19:32:00,44.0,40.0,-100.00,South,190,3.0,7.0,89,-99.99,,,-99.99,,2013-02-20 00:32:00,
2013-02-19 19:42:00,43.0,40.0,-100.00,South,170,3.0,6.0,89,-99.99,,,-99.99,,2013-02-20 00:42:00,
2013-02-19 19:52:00,43.0,40.0,-100.00,South,170,3.0,6.0,89,-99.99,,,-99.99,,2013-02-20 00:52:00,
2013-02-19 20:02:00,43.0,40.0,-100.00,SW,225,3.0,7.0,90,-99.99,,,-99.99,,2013-02-20 01:02:00,
2013-02-19 20:11:00,43.0,40.0,-100.00,SSW,205,2.0,8.0,90,-99.99,,,-99.99,,2013-02-20 01:11:00,
2013-02-19 20:21:00,43.0,40.0,-100.00,SW,220,5.0,10.0,90,-99.99,,,-99.99,,2013-02-20 01:21:00,
2013-02-19 20:32:00,43.0,40.0,-100.00,SW,220,5.0,10.0,90,-99.99,,,-99.99,,2013-02-20 01:32:00,
2013-02-19 20:42:00,42.0,39.0,-100.00,SW,220,3.0,6.0,91,-99.99,,,-99.99,,2013-02-20 01:42:00,
2013-02-19 20:52:00,42.0,39.0,-100.00,SW,220,3.0,6.0,91,-99.99,,,-99.99,,2013-02-20 01:52:00,
2013-02-19 21:02:00,41.0,39.0,-100.00,SSW,210,2.0,6.0,91,-99.99,,,-99.99,,2013-02-20 02:02:00,
2013-02-19 21:11:00,41.0,39.0,-100.00,South,190,2.0,7.0,92,-99.99,,,-99.99,,2013-02-20 02:11:00,
2013-02-19 21:21:00,41.0,38.0,-100.00,SSW,200,5.0,9.0,92,-99.99,,,-99.99,,2013-02-20 02:21:00,
2013-02-19 21:32:00,41.0,38.0,-100.00,SSW,200,5.0,9.0,92,-99.99,,,-99.99,,2013-02-20 02:32:00,
2013-02-19 21:42:00,40.0,37.0,-100.00,SW,220,4.0,14.0,88,-99.99,,,-99.99,,2013-02-20 02:42:00,
2013-02-19 21:52:00,40.0,35.0,-100.00,SW,235,4.0,12.0,83,-99.99,,,-99.99,,2013-02-20 02:52:00,
2013-02-19 22:02:00,40.0,35.0,-100.00,SW,235,4.0,12.0,83,-99.99,,,-99.99,,2013-02-20 03:02:00,
2013-02-19 22:12:00,40.0,34.0,-100.00,SW,220,4.0,12.0,81,-99.99,,,-99.99,,2013-02-20 03:12:00,
2013-02-19 22:22:00,40.0,30.0,-100.00,WSW,250,6.0,13.0,69,-99.99,,,-99.99,,2013-02-20 03:22:00,
2013-02-19 22:32:00,40.0,30.0,-100.00,WSW,250,6.0,13.0,69,-99.99,,,-99.99,,2013-02-20 03:32:00,
2013-02-19 22:42:00,39.0,28.0,-100.00,WSW,240,6.0,14.0,64,-99.99,,,-99.99,,2013-02-20 03:42:00,
2013-02-19 22:52:00,39.0,28.0,-100.00,WSW,240,6.0,14.0,64,-99.99,,,-99.99,,2013-02-20 03:52:00,
2013-02-19 23:01:00,39.0,26.0,-100.00,SW,225,6.0,15.0,58,-99.99,,,-99.99,,2013-02-20 04:01:00,
2013-02-19 23:11:00,39.0,25.0,-100.00,SW,230,4.0,11.0,57,-99.99,,,-99.99,,2013-02-20 04:11:00,
2013-02-19 23:21:00,39.0,25.0,-100.00,SW,230,4.0,11.0,57,-99.99,,,-99.99,,2013-02-20 04:21:00,
2013-02-19 23:32:00,39.0,23.0,-100.00,WSW,240,5.0,16.0,52,-99.99,,,-99.99,,2013-02-20 04:32:00,
2013-02-19 23:42:00,38.0,21.0,-100.00,SSW,205,6.0,16.0,50,-99.99,,,-99.99,,2013-02-20 04:42:00,
2013-02-19 23:52:00,38.0,21.0,-100.00,SSW,205,6.0,16.0,50,-99.99,,,-99.99,,2013-02-20 04:52:00,